Hourly Data Report for October 04, 2017

All times are specified in Local Standard Time (LST). Add 1 hour to adjust for Daylight Saving Time where and when it is observed.

OTTAWA INTL A
ONTARIO

45°19'00.000" N
75°40'00.000" W
114.90 m
6106001
71628
YOW

Download Data

Hourly Data (October 2017)
Hourly Data Report for October 4, 2017
Temp Definition
°C
Dew Point Temp Definition
°C
Rel Hum Definition
%
Wind Dir Definition
10's deg

Wind Spd Definition
km/h
Visibility Definition
km
Stn Press Definition
kPa
Hmdx Definition


Wind Chill Definition


Weather Definition


TIME
00:00 Legend Double Dagger 13.6 10.1 79 18 10 24.1 101.26     LegendNANA
01:00 Legend Double Dagger 14.3 10.8 79 18 12 24.1 101.24     Mostly Cloudy
02:00 Legend Double Dagger 14.5 11.1 80 19 10 24.1 101.14     LegendNANA
03:00 Legend Double Dagger 14.8 11.6 81 18 13 24.1 101.06     LegendNANA
04:00 Legend Double Dagger 15.4 12.3 81 20 13 24.1 101.04     Mostly Cloudy
05:00 Legend Double Dagger 15.0 12.2 83 18 12 24.1 100.99     LegendNANA
06:00 Legend Double Dagger 15.9 12.7 81 21 13 24.1 100.90     LegendNANA
07:00 Legend Double Dagger 17.3 12.9 75 21 17 24.1 100.86     Mostly Cloudy
08:00 Legend Double Dagger 17.7 12.9 73 22 18 24.1 100.87     LegendNANA
09:00 Legend Double Dagger 19.1 13.5 70 22 23 24.1 100.82     LegendNANA
10:00 Legend Double Dagger 19.4 14.9 75 22 19 16.1 100.67     Rain
11:00 Legend Double Dagger 19.7 17.2 85 22 10 24.1 100.58     LegendNANA
12:00 Legend Double Dagger 21.6 17.1 75 23 18 24.1 100.49 27   LegendNANA
13:00 Legend Double Dagger 22.8 17.2 71 22 22 24.1 100.33 28   Mostly Cloudy
14:00 Legend Double Dagger 23.0 17.1 69 21 18 24.1 100.22 28   LegendNANA
15:00 Legend Double Dagger 22.8 16.9 69 20 25 24.1 100.12 28   LegendNANA
16:00 Legend Double Dagger 22.5 17.1 71 22 22 24.1 100.03 28   Thunderstorms
17:00 Legend Double Dagger 22.2 17.4 74 21 22 16.1 99.95 28   Rain Showers
18:00 Legend Double Dagger 20.1 18.7 91 22 28 4.8 100.01 27   Thunderstorms,Moderate Rain Showers,Fog
19:00 Legend Double Dagger 19.3 18.0 92 25 22 24.1 100.05     Mostly Cloudy
20:00 Legend Double Dagger 18.0 15.7 86 26 17 24.1 100.12     LegendNANA
21:00 Legend Double Dagger 16.8 14.7 87 27 19 24.1 100.20     LegendNANA
22:00 Legend Double Dagger 15.9 13.5 85 28 24 24.1 100.28     Clear
23:00 Legend Double Dagger 14.7 12.8 88 27 16 24.1 100.35     LegendNANA

Notes on Data Quality.

Legend

  • E = Estimated
  • M = Missing
  • NA = Not Available
  • ‡ = Partner data that is not subject to review by the National Climate Archives
Date modified: